T Black Aviation
T Black Aviation Training School
T Black Aviation Cessna Pilot Center

We Give All FAA, FCC, and NCATT Written Exams

Accelerated Aviation Academics®

Come See Our New 2014 G1000 Cessna 172!

Aircraft Electronics Technician (AET) Logo

National Center for Aerospace & Transportation Technologies (NCATT)

One week course October 27-31, 2014

T Black Aviation guarantees that if you fail any of the written tests, after completing our course, you may return to our school, up to ten years from the date of the initial course, for additional training (sit in on the current course) until you receive your designated rating.

CATS Testing Center at T Black Aviation

Current METAR for KPIE

KPIE 220753Z 00000KT 10SM FEW011 SCT029 25/24 A2997 RMK AO2 SLP149 T02500239

Coming Soon to T Black Aviation